Regional Weather Roundup
Issued by NWS Bismarck, ND

Home | Current Version | Previous Version | Text Only | Print | Product List | Glossary On
Versions: 1 2 3 4 5 6 7 8 9 10 11 12 13 14 15 16 17 18 19 20 21 22 23 24 25 26 27 28 29 30 31 32 33 34 35 36 37 38 39 40 41 42 43 44 45 46 47 48 49 50
000
ASUS43 KBIS 271001
RWRBIS

NWR BROADCAST TEXT
NATIONAL WEATHER SERVICE BISMARCK ND
500 AM CDT WED MAY 27 2015

NOTE: "FAIR" INDICATES FEW OR NO CLOUDS BELOW 12,000 FEET WITH NO
SIGNIFICANT WEATHER AND/OR OBSTRUCTIONS TO VISIBILITY.


CITY           SKY/WX    TMP DP  RH WIND       PRES   REMARKS
WILLISTON      PTCLDY    51  44  77 SW5       29.91S
MINOT          CLEAR     59  45  59 SW12      29.88S
MINOT AFB      CLEAR     55  54  97 W9        29.88R
BISMARCK       CLEAR     52  49  89 CALM      29.94R
DICKINSON      CLEAR     49  42  77 S6        29.94S
GARRISON         N/A     55  47  74 W3        29.91R
HETTINGER ARPT CLEAR     44  41  89 CALM      29.97S
JAMESTOWN      CLEAR     56  47  71 W8        29.88R
CARRINGTON     FAIR      54  50  87 W7        29.91R
HAZEN          FAIR      48  45  87 W3        29.94R
OAKES            N/A     54  54 100 W8        29.88S
STANLEY        FAIR      54  48  82 W7        29.93S
$$

CITY           SKY/WX    TMP DP  RH WIND       PRES   REMARKS
GRAND FORKS    CLEAR     55  48  77 NW8       29.82R
GRAND FORKS AF CLEAR     58  48  69 NW8       29.84R
DEVILS LAKE    MOCLDY    55  46  71 N5        29.89R
FARGO          PTCLDY    56  49  77 CALM      29.82R
CAVALIER       FAIR      55  43  62 N13G20    29.88R
GRAFTON        FAIR      57  50  77 N10       29.86R
LANGDON        FAIR      54  48  82 NE10      29.90R
ROLLA          PTSUNNY   50  46  87 N9        29.94R
$$

CITY           SKY/WX    TMP DP  RH WIND       PRES   REMARKS
ABERDEEN       CLEAR     54  49  83 CALM      29.91R
MOBRIDGE       CLEAR     52  50  93 CALM      29.93R
RAPID CITY     MOCLDY    50  47  89 SE9       29.97S
GLASGOW        LGT RAIN  62  49  62 SW14      29.90S
SIDNEY         CLEAR     48  43  81 CALM      29.92S
WOLF POINT     MOCLDY    55  48  77 E3        29.89S
GLENDIVE       PTCLDY    52  46  82 CALM      29.93S
MILES CITY     MOCLDY    56  50  80 CALM      29.90S
BAKER          PTCLDY    46  44  93 SE5       29.95R
$$

CITY           SKY/WX    TMP DP  RH WIND       PRES   REMARKS
BILLINGS       CLOUDY    53  50  89 CALM      29.96S
GREAT FALLS    MOCLDY    47  46  97 SW10      30.01R
$$



USA.gov is the U.S. government's official web portal to all federal, state and local government web resources and services.